Weather History for Ocala, FL

Change the Weather History Date:

Thursday, September 12, 2013

  Actual Average Record
Temperature  
Mean Temperature 79 °F -  
Max Temperature 89 °F 86 °F 93 °F (1997)
Min Temperature 69 °F 68 °F 62 °F (2003)
Cooling Degree Days 14    
Growing Degree Days 29 (Base 50)    
Moisture  
Dew Point 67 °F    
Average Humidity 74    
Maximum Humidity 83    
Minimum Humidity 49    
Precipitation  
Precipitation 0.00 in - - ()
Sea Level Pressure  
Sea Level Pressure 30.00 in    
Wind  
Wind Speed 2 mph (NE)    
Max Wind Speed 8 mph    
Max Gust Speed -    
Visibility 9 miles    
Events      
Averages and records for this station are not official NWS values.
T = Trace of Precipitation, MM = Missing Value Source: NWS Daily Summary

Daily Weather History Graph

Daily Weather History Graph

Search for Another Location

Airport:

Trip Planner

Search our weather history database for the weather conditions in past years. The results will help you decide how hot, cold, wet, or windy it might be!

Date:

Astronomy

Sep. 12, 2013 Rise Set
Actual Time 7:12 AM EDT 7:37 PM EDT
Civil Twilight 6:48 AM EDT 8:01 PM EDT
Nautical Twilight 6:20 AM EDT 8:28 PM EDT
Astronomical Twilight 5:52 AM EDT 8:57 PM EDT
Moon 2:08 PM EDT (9/12) 12:03 AM EDT (9/12)
Length of Visible Light 13h 12m
Length of Day
12h 25m
Waxing Crescent, 50% of the Moon is Illuminated
Sep 12
Waxing Crescent
Sep 12
First Quarter
Sep 19
Full
Sep 26
Last Quarter
Oct 4
New

Hourly Weather History & Observations

Time (EDT) Temp. Heat Index Dew Point Humidity Pressure Visibility Wind Dir Wind Speed Gust Speed Precip Events Conditions
12:15 AM 73.4 °F - 66.2 °F 78% 30.06 in 10.0 mi Calm Calm - N/A   Clear
12:35 AM 73.4 °F - 66.2 °F 78% 30.06 in 10.0 mi Calm Calm - N/A   Clear
12:55 AM 73.4 °F - 66.2 °F 78% 30.05 in 10.0 mi Calm Calm - N/A   Clear
1:15 AM 73.4 °F - 66.2 °F 78% 30.05 in 10.0 mi Calm Calm - N/A   Clear
1:35 AM 73.4 °F - 66.2 °F 78% 30.05 in 10.0 mi North 3.5 mph - N/A   Clear
1:55 AM 71.6 °F - 66.2 °F 83% 30.04 in 10.0 mi Calm Calm - N/A   Clear
2:15 AM 71.6 °F - 66.2 °F 83% 30.04 in 10.0 mi Calm Calm - N/A   Clear
2:35 AM 71.6 °F - 66.2 °F 83% 30.03 in 10.0 mi Calm Calm - N/A   Clear
2:55 AM 71.6 °F - 66.2 °F 83% 30.03 in 10.0 mi Calm Calm - N/A   Clear
3:15 AM 71.6 °F - 66.2 °F 83% 30.03 in 10.0 mi Calm Calm - N/A   Clear
3:35 AM 71.6 °F - 66.2 °F 83% 30.02 in 10.0 mi NNE 3.5 mph - N/A   Clear
3:55 AM 71.6 °F - 66.2 °F 83% 30.02 in 10.0 mi North 3.5 mph - N/A   Clear
4:15 AM 71.6 °F - 66.2 °F 83% 30.02 in 10.0 mi Calm Calm - N/A   Clear
4:35 AM 71.6 °F - 64.4 °F 78% 30.02 in 8.0 mi North 3.5 mph - N/A   Clear
4:55 AM 71.6 °F - 66.2 °F 83% 30.01 in 4.0 mi NNE 4.6 mph - N/A   Clear
5:15 AM 69.8 °F - 64.4 °F 83% 30.01 in 9.0 mi North 4.6 mph - N/A   Clear
5:35 AM 69.8 °F - 64.4 °F 83% 30.01 in 7.0 mi North 3.5 mph - N/A   Clear
5:55 AM 71.6 °F - 66.2 °F 83% 30.01 in 8.0 mi Calm Calm - N/A   Clear
6:15 AM 71.6 °F - 66.2 °F 83% 30.01 in 8.0 mi NNE 3.5 mph - N/A   Clear
6:35 AM 71.6 °F - 64.4 °F 78% 30.01 in 7.0 mi Calm Calm - N/A   Clear
6:50 AM 69.8 °F - 64.4 °F 83% 30.02 in 7.0 mi Calm Calm - N/A   Partly Cloudy
7:50 AM 71.6 °F - 64.4 °F 78% 30.04 in 5.0 mi NNE 3.5 mph - N/A   Clear
8:50 AM 75.2 °F - 69.8 °F 83% 30.04 in 10.0 mi NE 3.5 mph - N/A   Clear
9:50 AM 80.6 °F 83.9 °F 69.8 °F 70% 30.04 in 10.0 mi ENE 3.5 mph - N/A   Partly Cloudy
10:50 AM 84.2 °F 88.4 °F 69.8 °F 62% 30.04 in 10.0 mi NNE 3.5 mph - N/A   Mostly Cloudy
11:50 AM 84.2 °F 88.4 °F 69.8 °F 62% 30.03 in 10.0 mi NE 3.5 mph - N/A   Mostly Cloudy
12:50 PM 86.0 °F 90.4 °F 69.8 °F 58% 30.01 in 10.0 mi NNE 4.6 mph - N/A   Scattered Clouds
1:50 PM 89.6 °F 94.7 °F 69.8 °F 52% 29.99 in 10.0 mi NNE 5.8 mph - N/A   Mostly Cloudy
2:50 PM 89.6 °F 93.4 °F 68.0 °F 49% 29.96 in 10.0 mi NNE 4.6 mph - N/A   Scattered Clouds
3:50 PM 82.4 °F 85.4 °F 68.0 °F 62% 29.95 in 10.0 mi East 4.6 mph - N/A   Mostly Cloudy
4:50 PM 84.2 °F 87.3 °F 68.0 °F 58% 29.91 in 10.0 mi East 6.9 mph - N/A   Scattered Clouds
5:50 PM 87.8 °F 91.4 °F 68.0 °F 52% 29.91 in 10.0 mi East 5.8 mph - N/A   Clear
7:55 PM 80.6 °F 82.7 °F 66.2 °F 61% 29.93 in 10.0 mi Calm Calm - N/A   Clear
8:15 PM 78.8 °F - 66.2 °F 65% 29.93 in 10.0 mi Calm Calm - N/A   Clear
8:35 PM 78.8 °F - 66.2 °F 65% 29.95 in 10.0 mi South 6.9 mph - N/A   Clear
8:55 PM 77.0 °F - 66.2 °F 69% 29.95 in 10.0 mi South 3.5 mph - N/A   Clear
9:15 PM 75.2 °F - 66.2 °F 73% 29.95 in 10.0 mi South 5.8 mph - N/A   Clear
9:35 PM 75.2 °F - 66.2 °F 73% 29.96 in 10.0 mi South 8.1 mph - N/A   Clear
9:55 PM 75.2 °F - 66.2 °F 73% 29.96 in 10.0 mi South 4.6 mph - N/A   Clear
10:15 PM 73.4 °F - 66.2 °F 78% 29.96 in 10.0 mi SSW 4.6 mph - N/A   Clear
10:35 PM 73.4 °F - 66.2 °F 78% 29.96 in 10.0 mi South 4.6 mph - N/A   Clear
10:55 PM 73.4 °F - 66.2 °F 78% 29.95 in 10.0 mi Calm Calm - N/A   Clear
11:15 PM 73.4 °F - 66.2 °F 78% 29.95 in 10.0 mi SSW 3.5 mph - N/A   Clear
11:35 PM 71.6 °F - 66.2 °F 83% 29.94 in 10.0 mi Calm Calm - N/A   Clear
11:55 PM 71.6 °F - 66.2 °F 83% 29.94 in 10.0 mi Calm Calm - N/A   Clear